Wind_Speed
3 3 2 6 8 7 11 11 16 18 12 12 18 11 18 17 14 17 16 13 9 8 7 8 9 11 9 8 8 6 6 10 11 13 15 14 14 12 12 10 13 16 17 19
5 10 1 8 7 11 17 17 22 6 13 12 7 17 17 17 20 20 18 10 16 12 10 12 16 19 14 15 11 12 11 12 17 20 18 17 15 12 10 14 15 16 16 17
9 7 7 5 10 17 15 5 13 2 2 10 7 8 21 17 17 19 19 13 17 17 16 16 16 20 20 20 19 15 18 18 22 22 21 16 12 11 14 15 13 16 19 22
15 9 11 11 12 7 11 11 5 3 5 4 8 2 10 14 19 18 18 18 23 22 22 23 22 22 24 26 26 19 22 24 24 20 18 17 17 16 17 17 18 20 24 27
3 17 13 16 14 7 8 10 7 14 10 11 9 5 11 21 24 21 24 25 23 25 25 27 30 30 27 30 26 26 25 24 19 19 17 16 17 20 20 24 25 26 29 30
5 3 7 16 8 9 4 5 7 10 7 5 15 15 7 17 24 28 29 28 26 24 27 28 32 35 35 27 22 28 24 20 17 16 16 16 19 21 22 26 27 29 32 36
15 15 10 4 9 5 8 12 4 3 5 4 17 9 21 15 19 27 14 20 29 33 29 32 36 39 39 27 22 21 19 18 16 16 18 19 21 22 25 28 29 31 32 39
10 5 4 10 13 8 10 11 2 4 2 6 17 6 6 5 16 15 13 16 27 29 36 39 42 43 36 22 21 22 21 19 16 16 20 23 24 27 28 30 30 31 35 42
12 5 12 12 3 5 8 10 8 5 5 3 8 15 10 10 12 12 18 21 28 28 27 31 34 29 23 20 22 26 24 22 21 18 20 25 28 31 32 34 34 34 37 37
16 6 12 19 11 11 14 11 4 4 4 4 5 6 9 5 4 8 14 18 20 21 20 22 22 23 22 20 24 29 29 27 26 24 25 25 28 31 33 36 38 45 35 34
5 6 3 21 14 12 13 12 9 10 4 4 1 1 2 2 2 2 13 18 18 19 18 18 18 20 20 19 21 28 32 32 30 28 29 31 33 35 36 41 43 41 44 35
15 5 12 19 8 11 10 7 6 13 6 3 2 8 17 13 4 6 4 11 17 21 22 24 23 22 23 23 20 21 27 32 35 33 33 35 37 37 39 42 43 44 39 36
15 6 7 11 12 12 14 14 19 14 10 13 5 5 4 18 15 12 9 5 12 16 22 25 27 29 27 28 29 31 33 34 34 35 36 37 38 39 42 44 40 49 36 37
17 11 10 10 9 10 8 11 12 15 13 11 15 18 22 11 18 10 10 7 6 10 18 23 27 30 31 33 35 34 39 40 40 38 36 34 36 40 41 41 46 33 34 36
13 17 17 15 16 15 9 11 8 13 15 19 18 15 10 14 4 10 5 5 5 8 10 17 28 29 31 33 35 37 38 41 42 39 36 34 38 39 44 38 38 40 38 30
14 14 14 14 17 19 16 15 18 17 14 15 12 16 11 16 11 11 9 11 9 8 15 20 19 24 27 31 34 36 38 40 40 39 37 38 41 44 44 47 45 36 29 28
17 16 15 13 14 14 14 21 18 15 18 17 16 14 15 17 11 9 9 11 15 21 19 19 22 28 31 33 33 35 37 36 36 38 40 44 47 49 50 48 41 36 29 32
20 16 11 6 6 0 7 4 7 3 3 6 6 9 9 5 9 10 13 17 18 19 21 19 19 19 24 28 30 31 31 33 36 40 44 49 53 54 56 49 37 31 28 24
15 15 11 6 13 12 10 9 9 9 5 7 11 12 12 10 10 13 18 22 21 18 20 20 21 25 25 23 26 30 32 37 40 43 49 56 56 56 47 34 34 29 24 27
19 17 16 11 5 6 5 6 7 6 8 10 13 15 16 14 16 22 19 21 20 22 25 25 29 31 30 30 32 33 37 40 42 49 52 57 57 46 33 30 21 21 24 30
14 17 19 15 8 6 9 10 12 9 8 12 12 12 14 22 20 20 20 23 26 28 28 26 26 28 29 30 32 37 41 43 45 53 55 41 32 36 26 21 18 23 30 33
10 11 14 14 8 9 12 13 13 12 14 11 12 20 24 22 19 18 20 23 25 25 27 29 28 26 26 28 33 38 41 48 50 46 38 40 35 25 23 20 25 30 30 30
10 11 11 7 4 6 7 10 11 12 12 19 23 22 20 20 20 20 23 25 27 29 27 24 25 25 24 27 31 38 38 41 41 39 29 25 23 17 19 25 28 30 30 29
17 11 12 9 6 8 5 15 18 19 21 22 18 21 22 22 22 22 25 27 29 27 24 22 24 26 28 31 33 34 33 27 23 21 23 17 17 21 26 27 29 31 32 32
19 17 16 15 15 16 16 18 20 22 23 22 23 26 26 23 22 24 27 28 26 23 24 29 28 29 27 24 21 18 18 19 20 19 18 20 24 26 28 31 32 34 34 33
17 19 18 18 19 22 24 25 24 22 23 25 26 26 25 25 27 28 26 25 27 27 28 27 25 21 18 17 18 18 19 19 19 20 23 26 28 30 31 33 34 34 35 34
Wind_Direction
26 168 211 191 217 211 253 281 278 273 246 210 206 204 192 191 191 184 177 181 221 214 201 200 212 232 250 277 249 256 247 263 277 288 289 285 280 273 285 276 263 253 259 270
334 242 180 156 196 264 295 279 287 218 209 208 239 215 203 179 198 209 213 225 218 236 250 236 226 221 258 276 282 277 278 279 280 289 282 280 270 282 275 260 264 263 266 271
282 275 182 231 250 271 271 248 304 66 178 202 251 201 192 191 193 218 228 253 226 250 259 260 232 243 256 271 274 263 273 274 275 275 269 271 274 267 277 292 296 283 284 291
270 256 189 264 275 330 233 280 269 341 254 250 241 149 188 182 202 210 231 239 239 245 249 264 267 251 258 259 264 262 266 269 265 263 274 279 286 304 310 313 308 315 310 304
161 187 240 268 279 274 267 211 231 188 220 234 193 224 286 230 231 230 229 221 233 240 249 258 261 266 262 255 259 266 260 259 257 275 288 296 298 306 312 314 316 310 311 310
239 233 282 264 208 198 297 256 241 267 291 204 258 232 224 237 254 229 220 222 219 227 239 244 254 260 264 262 257 256 254 248 271 284 288 292 294 307 312 310 303 303 305 306
228 252 229 179 218 214 238 278 302 342 351 235 338 217 259 251 240 206 216 223 232 230 232 239 246 253 263 266 267 256 242 260 276 285 286 292 299 302 292 289 292 292 300 306
224 206 253 213 247 255 288 259 217 163 206 280 351 276 269 267 207 218 231 246 218 223 228 239 248 256 262 267 261 247 254 268 277 275 280 290 290 283 283 287 290 301 304 304
189 220 269 239 289 275 285 278 268 186 229 28 247 287 144 144 167 209 222 210 210 226 237 250 251 255 263 262 248 248 259 269 273 281 284 279 279 282 285 286 284 298 300 298
232 243 293 207 290 220 246 256 220 217 139 239 274 8 123 135 156 185 205 215 224 251 256 253 258 261 263 259 245 251 262 268 273 281 283 277 280 285 286 285 286 295 295 295
222 227 258 196 233 264 240 247 240 239 252 174 147 79 58 32 262 189 213 231 258 278 290 296 286 281 280 277 263 259 267 274 276 282 282 280 282 283 288 293 300 291 293 293
223 190 167 204 257 244 238 249 259 231 241 244 241 253 284 291 316 340 332 242 260 273 286 292 294 297 291 297 298 292 286 289 286 285 283 281 283 286 286 287 292 292 294 300
195 195 211 261 256 254 249 278 256 269 245 225 192 238 321 313 295 293 318 324 244 268 276 281 282 292 295 294 301 303 304 303 302 294 290 286 286 287 285 289 291 292 300 297
205 209 217 219 251 271 297 259 243 261 241 238 245 276 285 292 289 283 296 272 262 256 266 280 280 281 283 286 286 288 296 298 301 301 295 292 291 289 287 286 293 292 289 301
231 228 226 236 250 268 268 273 255 266 269 242 272 273 288 304 318 254 212 232 247 252 270 281 279 280 284 284 281 288 292 296 298 298 302 301 296 290 286 280 279 277 286 302
228 234 235 251 253 266 278 264 269 254 257 273 296 275 286 301 306 306 282 268 257 255 269 272 261 271 272 279 285 293 296 296 296 301 305 293 291 288 280 282 273 273 289 291
224 224 229 245 264 271 272 262 268 267 261 259 279 288 267 267 280 287 286 277 282 293 274 271 262 271 277 280 287 290 292 291 293 290 285 283 289 288 282 271 266 266 298 307
219 218 222 216 221 164 265 237 243 199 213 228 203 243 245 229 249 273 293 302 304 295 280 276 276 268 271 282 288 290 287 284 279 278 282 284 283 285 278 269 262 303 304 318
217 224 213 200 206 253 229 240 242 236 200 227 232 237 255 257 286 303 310 305 295 278 276 279 281 290 288 280 277 275 267 271 275 278 283 277 284 276 263 269 293 308 327 326
226 228 220 198 199 205 211 225 236 227 200 240 259 267 272 280 304 310 299 290 285 281 286 286 294 300 300 297 294 291 289 291 285 276 278 289 273 271 287 301 315 335 319 307
209 211 216 214 216 245 233 241 252 243 231 242 255 265 281 302 306 298 288 279 274 279 286 296 300 303 301 292 284 277 271 269 273 279 264 257 273 293 302 325 330 307 301 306
214 197 204 210 216 248 224 236 238 245 233 258 268 285 289 295 292 284 282 280 288 299 304 307 313 308 293 287 285 288 292 290 278 271 280 292 295 304 326 325 305 306 311 311
213 213 212 200 205 208 237 252 244 224 232 268 280 288 297 298 296 291 287 290 296 302 307 308 305 299 297 296 295 288 286 286 288 294 300 295 304 312 302 300 305 309 312 310
214 208 220 209 241 257 212 231 246 262 275 291 290 302 301 302 300 295 296 300 304 308 301 294 292 294 292 291 290 289 294 297 297 291 292 296 299 298 301 306 307 310 312 311
221 227 227 234 218 223 227 235 252 266 280 288 289 298 301 298 293 293 296 297 296 290 282 287 295 300 301 301 300 301 303 298 291 293 299 299 299 302 306 307 308 309 312 312
233 231 237 240 247 249 254 259 264 269 274 280 289 292 293 294 294 294 291 287 285 285 286 290 292 294 296 302 308 299 292 295 305 306 303 303 303 303 305 306 305 306 309 312
Height
3125 3126 3127 3128 3129 3130 3130 3131 3130 3129 3130 3131 3132 3133 3135 3137 3141 3142 3143 3145 3146 3148 3149 3151 3151 3149 3150 3151 3154 3157 3159 3158 3158 3159 3160 3160 3158 3158 3159 3160 3160 3160 3159 3157
3128 3128 3129 3128 3128 3129 3128 3130 3128 3126 3126 3132 3133 3134 3134 3137 3141 3141 3144 3144 3145 3147 3147 3148 3149 3147 3148 3148 3151 3153 3154 3156 3155 3155 3155 3155 3155 3156 3156 3156 3155 3156 3156 3154
3127 3127 3127 3128 3128 3128 3130 3130 3126 3128 3128 3130 3132 3134 3136 3139 3140 3140 3142 3142 3143 3144 3146 3148 3149 3144 3145 3145 3147 3152 3152 3153 3151 3151 3151 3150 3151 3153 3153 3151 3152 3150 3149 3147
3126 3125 3127 3127 3125 3128 3128 3129 3126 3127 3129 3130 3130 3134 3136 3138 3140 3141 3142 3140 3141 3141 3142 3143 3145 3145 3142 3144 3145 3150 3148 3147 3146 3146 3146 3146 3145 3145 3145 3146 3145 3144 3143 3141
3123 3123 3125 3126 3125 3128 3127 3127 3126 3127 3130 3132 3130 3133 3132 3135 3138 3138 3139 3141 3139 3136 3136 3138 3140 3142 3143 3142 3142 3142 3142 3141 3142 3142 3140 3140 3139 3139 3139 3138 3139 3137 3136 3133
3124 3126 3126 3124 3124 3126 3125 3126 3126 3127 3127 3128 3126 3126 3127 3128 3127 3130 3134 3134 3137 3136 3135 3135 3136 3138 3138 3138 3138 3137 3137 3138 3138 3137 3138 3138 3137 3137 3136 3134 3132 3130 3128 3127
3123 3124 3126 3125 3125 3126 3126 3125 3126 3128 3129 3129 3126 3126 3120 3120 3123 3123 3122 3126 3131 3133 3132 3131 3131 3132 3132 3133 3133 3133 3134 3135 3136 3135 3134 3134 3134 3133 3131 3129 3128 3128 3125 3122
3120 3123 3123 3125 3126 3126 3125 3124 3126 3132 3131 3126 3122 3121 3117 3114 3116 3119 3122 3124 3127 3128 3129 3128 3127 3128 3130 3130 3129 3129 3130 3132 3133 3133 3132 3131 3130 3129 3128 3127 3125 3123 3119 3114
3117 3120 3119 3123 3123 3126 3123 3123 3123 3123 3125 3124 3123 3119 3114 3113 3116 3117 3119 3120 3122 3125 3126 3125 3124 3124 3125 3127 3127 3126 3127 3129 3130 3131 3131 3129 3127 3125 3123 3121 3117 3114 3110 3105
3114 3116 3117 3120 3122 3121 3121 3123 3122 3120 3125 3126 3118 3118 3116 3116 3116 3116 3116 3117 3119 3122 3122 3120 3120 3120 3122 3124 3124 3122 3122 3124 3125 3126 3125 3123 3121 3118 3116 3112 3108 3104 3099 3096
3113 3114 3114 3118 3119 3118 3119 3118 3118 3120 3119 3119 3123 3119 3117 3117 3116 3114 3115 3116 3115 3115 3115 3115 3115 3116 3117 3118 3120 3119 3116 3117 3118 3119 3117 3115 3112 3109 3107 3103 3099 3095 3091 3084
3110 3110 3111 3114 3113 3116 3116 3116 3116 3116 3117 3116 3116 3117 3116 3115 3115 3115 3114 3113 3112 3112 3112 3112 3111 3110 3110 3111 3113 3114 3112 3110 3110 3111 3109 3107 3104 3102 3098 3093 3090 3085 3080 3075
3106 3108 3110 3111 3114 3113 3112 3112 3112 3113 3112 3112 3114 3114 3113 3113 3113 3112 3111 3112 3111 3111 3110 3108 3106 3106 3106 3105 3106 3106 3106 3105 3103 3103 3102 3099 3097 3092 3088 3084 3080 3075 3070 3065
3103 3104 3106 3108 3108 3110 3109 3108 3108 3109 3109 3110 3110 3110 3109 3110 3109 3108 3108 3108 3107 3107 3107 3105 3102 3100 3099 3099 3100 3101 3100 3099 3098 3096 3094 3093 3088 3085 3080 3074 3071 3066 3062 3058
3098 3099 3102 3103 3105 3105 3105 3106 3106 3105 3106 3105 3107 3108 3107 3107 3105 3104 3104 3104 3105 3106 3105 3103 3100 3098 3096 3095 3095 3095 3094 3092 3090 3088 3086 3084 3079 3074 3070 3064 3060 3056 3052 3049
3093 3095 3097 3099 3101 3100 3100 3101 3101 3101 3101 3102 3103 3103 3105 3103 3101 3101 3101 3101 3100 3101 3102 3101 3097 3096 3095 3093 3091 3089 3087 3084 3082 3079 3077 3075 3069 3066 3061 3056 3051 3049 3045 3041
3091 3092 3095 3096 3097 3097 3097 3095 3096 3096 3098 3099 3099 3099 3098 3098 3096 3095 3096 3096 3096 3096 3095 3095 3094 3091 3088 3088 3086 3083 3081 3077 3074 3072 3069 3065 3062 3058 3052 3047 3042 3040 3037 3035
3087 3089 3091 3093 3094 3097 3092 3092 3092 3093 3093 3094 3094 3092 3093 3094 3092 3092 3092 3091 3092 3090 3089 3088 3089 3088 3085 3083 3080 3076 3074 3071 3068 3065 3061 3056 3051 3046 3039 3034 3035 3036 3031 3027
3084 3086 3087 3089 3090 3089 3088 3088 3088 3089 3090 3090 3090 3090 3089 3091 3090 3089 3089 3088 3087 3085 3083 3081 3080 3080 3078 3077 3074 3071 3068 3065 3061 3057 3052 3044 3038 3032 3029 3031 3032 3029 3024 3022
3079 3081 3084 3085 3086 3086 3083 3084 3085 3085 3085 3087 3087 3087 3088 3087 3087 3086 3084 3083 3081 3078 3077 3076 3075 3073 3071 3069 3066 3063 3060 3056 3051 3045 3038 3032 3027 3028 3030 3028 3024 3021 3018 3015
3075 3077 3078 3080 3081 3080 3079 3081 3082 3084 3087 3082 3083 3083 3083 3084 3084 3081 3079 3076 3074 3073 3072 3071 3069 3067 3065 3062 3059 3054 3049 3044 3040 3035 3029 3025 3026 3026 3023 3020 3017 3015 3011 3006
3071 3073 3074 3076 3078 3078 3075 3076 3078 3079 3078 3079 3079 3079 3077 3078 3077 3076 3071 3068 3067 3068 3067 3065 3063 3061 3059 3057 3052 3049 3046 3041 3034 3029 3028 3026 3022 3019 3016 3012 3010 3007 3003 2998
3068 3069 3070 3072 3072 3072 3072 3073 3072 3074 3075 3075 3074 3073 3072 3071 3071 3069 3065 3065 3063 3062 3061 3058 3055 3053 3051 3048 3046 3041 3038 3034 3029 3025 3021 3019 3016 3012 3009 3006 3002 2999 2996 2991
3063 3065 3067 3069 3070 3069 3070 3067 3066 3067 3071 3070 3069 3068 3067 3066 3064 3062 3060 3058 3056 3055 3052 3049 3046 3043 3040 3036 3032 3029 3026 3023 3020 3018 3015 3011 3008 3005 3003 2999 2995 2991 2987 2983
3060 3062 3063 3065 3067 3065 3065 3063 3063 3064 3064 3063 3064 3062 3061 3059 3058 3055 3053 3050 3048 3045 3042 3039 3037 3035 3031 3028 3024 3021 3019 3016 3014 3010 3007 3005 3003 2999 2996 2992 2987 2983 2979 2974
3054 3056 3057 3058 3059 3059 3060 3060 3060 3060 3060 3058 3058 3055 3053 3051 3050 3047 3045 3042 3040 3037 3035 3032 3030 3027 3023 3020 3017 3015 3013 3010 3007 3005 3002 2999 2995 2992 2988 2984 2979 2975 2971 2966